[Iaude] MPEC T62: 2023 TR1 [a=1.28,e=0.63,i=4.4,H=29.8]

mpec at marsden.cfa.harvard.edu mpec at marsden.cfa.harvard.edu
Fri Oct 6 20:59:54 EDT 2023


M.P.E.C. 2023-T62                               Issued 2023 October 7, 00:58 UT

     The Minor Planet Electronic Circulars contain information on unusual
         minor planets, routine data on comets and natural satellites,
         and occasional editorial announcements.  They are published
    on behalf of Division F of the International Astronomical Union by the
          Minor Planet Center, Smithsonian Astrophysical Observatory,
                          Cambridge, MA 02138, U.S.A.
			  
             Prepared using the Tamkin Foundation Computer Network

                              MPC at CFA.HARVARD.EDU
            URL https://www.minorplanetcenter.net/    ISSN 1523-6714

                                    2023 TR1                                    


Observations:
     K23T01R*1C2023 10 06.36415601 02 50.719+15 58 23.66         20.23GVET062G96
     K23T01R 1C2023 10 06.36995601 02 42.140+15 58 52.07         19.87GVET062G96
     K23T01R 1C2023 10 06.37575501 02 33.367+15 59 20.26         19.89GVET062G96
     K23T01R 1C2023 10 06.38157001 02 24.468+15 59 49.31         20.55GVET062G96
     K23T01R 1C2023 10 06.38929601 02 12.540+16 00 28.10         20.72GVET062G96
     K23T01R 1C2023 10 06.38953801 02 12.160+16 00 28.90         19.71GVET062G96
     K23T01R KC2023 10 06.40778501 01 43.259+16 02 00.92         20.19GVET062I52
     K23T01R KC2023 10 06.40836501 01 42.337+16 02 03.12         19.99GVET062I52
     K23T01R KC2023 10 06.40952901 01 40.465+16 02 09.67         19.77GVET062I52
     K23T01R KC2023 10 06.41013601 01 39.486+16 02 12.30         19.97GVET062I52
     K23T01R KC2023 10 06.41072201 01 38.528+16 02 15.47         20.22GVET062I52
     K23T01R KC2023 10 06.41130901 01 37.596+16 02 18.17         19.96GVET062I52
     K23T01R KC2023 10 06.41190301 01 36.635+16 02 21.01         19.61GVET062I52
     K23T01R KC2023 10 06.47158000 59 55.406+16 07 33.24         19.91GVET062I52
     K23T01R KC2023 10 06.47216600 59 54.388+16 07 37.16         19.74GVET062I52
     K23T01R KC2023 10 06.47274700 59 53.383+16 07 40.01         19.66GVET062I52
     K23T01R KC2023 10 06.47332800 59 52.310+16 07 42.92         19.85GVET062I52
     K23T01R KB2023 10 06.82216 00 45 48.806+17 14 35.63         19.8 VZET062J57
     K23T01R KB2023 10 06.82529 00 45 31.927+17 15 50.65         19.1 VZET062J57
     K23T01R KB2023 10 06.82797 00 45 17.191+17 16 56.21         19.1 VZET062J57
     K23T01R KB2023 10 06.83043 00 45 03.521+17 17 53.92         19.3 VZET062J57
     K23T01R KB2023 10 06.83240 00 44 52.464+17 18 44.53         18.9 VZET062J57
     K23T01R KB2023 10 06.83484 00 44 38.676+17 19 44.98         18.8 VZET062J57
     K23T01R KB2023 10 06.84091 00 44 02.988+17 22 18.05         18.2 VZET062J57
     K23T01R KB2023 10 06.84262 00 43 52.802+17 23 01.75         19.0 VZET062J57
     K23T01R KB2023 10 06.84463 00 43 40.610+17 23 54.82         19.2 VZET062J57
     K23T01R KB2023 10 06.84729 00 43 24.355+17 25 04.91         18.4 VZET062J57
     K23T01R KB2023 10 06.84966 00 43 09.526+17 26 07.12         18.7 VZET062J57
     K23T01R KB2023 10 06.85049 00 43 04.315+17 26 29.04         18.7 VZET062J57
     K23T01R KB2023 10 06.85147 00 42 58.114+17 26 55.68         18.9 VZET062J57
     K23T01R KB2023 10 06.85204 00 42 54.514+17 27 11.23         19.2 VZET062J57
     K23T01R KB2023 10 06.85362 00 42 44.410+17 27 53.96         18.6 VZET062J57
     K23T01R KB2023 10 06.85427 00 42 40.258+17 28 11.28         19.0 VZET062J57
     K23T01R KC2023 10 06.90252400 36 32.182+17 47 31.67         18.0 GXET062Z43
     K23T01R KC2023 10 06.91052400 35 21.559+17 51 59.90         18.1 GXET062Z43
     K23T01R KB2023 10 06.91689000 34 02.195+17 54 50.65         18.2 GXET062B72
     K23T01R KC2023 10 06.91870300 34 05.484+17 56 43.69         17.9 GXET062Z43
     K23T01R KB2023 10 06.91873300 33 44.476+17 55 54.49         17.5 GXET062B72
     K23T01R KB2023 10 06.92063400 33 25.994+17 57 00.71         18.2 GXET062B72
     K23T01R KB2023 10 06.92586600 32 33.998+18 00 07.52         18.6 GXET062B72
     K23T01R KB2023 10 06.92761100 32 16.228+18 01 10.29         18.4 GXET062B72
     K23T01R KC2023 10 06.92896300 31 51.92 +18 05 11.2          18.1 GVET062595
     K23T01R KB2023 10 06.92941600 31 57.686+18 02 16.02         17.7 GXET062B72
     K23T01R KC2023 10 06.93079900 31 32.54 +18 06 20.1          18.1 GVET062595
     K23T01R IC2023 10 06.93263500 31 13.08 +18 07 27.5                VET062595
     K23T01R KC2023 10 06.93635 00 30 39.11 +18 11 03.2          17.0 VqET062104
     K23T01R KC2023 10 06.93757 00 30 25.63 +18 11 50.9          17.3 VqET062104
     K23T01R KC2023 10 06.93877 00 30 12.35 +18 12 37.5          17.7 VqET062104
     K23T01R KB2023 10 06.94236400 29 57.12 +18 14 23.6          19.0 GVET062I93
     K23T01R KB2023 10 06.94347600 29 44.43 +18 15 09.0          18.2 GVET062I93
     K23T01R KB2023 10 06.94458500 29 31.73 +18 15 54.1          18.2 GVET062I93
     K23T01R KB2023 10 06.94569500 29 18.89 +18 16 40.4          17.8 GVET062I93
     K23T01R KB2023 10 06.94679200 29 06.08 +18 17 26.1          18.0 GVET062I93
     K23T01R KC2023 10 06.95253100 27 59.82 +18 22 04.2          18.1 GXET062958
     K23T01R KC2023 10 06.95545600 27 23.76 +18 24 11.9          18.3 GXET062958
     K23T01R KC2023 10 06.96657900 24 59.21 +18 32 34.6          17.9 GXET062958
     K23T01R KC2023 10 06.96873000 24 29.84 +18 34 15.2          18.4 GXET062958
     K23T01R KC2023 10 06.97827900 21 34.92 +18 40 15.0          18.2 GVET062L01
     K23T01R KC2023 10 06.97906100 21 23.18 +18 40 52.6          18.1 GVET062L01
     K23T01R KC2023 10 06.97984400 21 11.40 +18 41 30.5          18.2 GVET062L01
     K23T01R KC2023 10 06.98041700 21 15.92 +18 41 45.5          17.6 GVET062204
     K23T01R KC2023 10 06.98062900 20 59.54 +18 42 08.6          18.2 GVET062L01
     K23T01R KC2023 10 06.98131700 21 02.26 +18 42 30.2                VET062204
     K23T01R KC2023 10 06.98141700 20 47.60 +18 42 46.9          18.4 GVET062L01
     K23T01R KC2023 10 06.98232800 20 46.78 +18 43 20.1                VET062204

Observer details:
104 San Marcello Pistoiese.  Observers P. Bacci, M. Maestripieri, M. D.
    Grazia.  Measurer P. Bacci.  0.60-m f/4 reflector + CCD.
204 Schiaparelli Observatory.  Observers L. Buzzi, G. Galli.  0.84-m f/3.5
    reflector + CCD.
595 Farra d'Isonzo.  Observers E. Amodeo, S. Manca, E. Pettarin.  Measurer E.
    Pettarin.  0.61-m f/4.5 reflector + CCD.
958 Observatoire de Dax.  Observers P. Dupouy, J. B. de Vanssay.  Measurer P.
    Dupouy.  0.43-m f/2.7 Reflector + CCD.
B72 Soerth.  Observer B. Koch.  0.36-m f/7.6 reflector + CMO.
G96 Mt. Lemmon Survey.  Observer K. W. Wierzchos.  Measurers E. C. Beshore, D.
    Fay, J. B. Fazekas, D. C. Fuls, A. R. Gibbs, A. D. Grauer, H. Groeller, J.
    K. Hogan, R. A. Kowalski, S. M. Larson, G. J. Leonard, D. Rankin, R. L.
    Seaman, F. C. Shelly, K. W. Wierzchos.  1.5-m reflector + 10K CCD.
I52 Steward Observatory, Mt. Lemmon Station.  Observer D. Rankin.  Measurers
    E. C. Beshore, D. Fay, J. B. Fazekas, D. C. Fuls, A. R. Gibbs, A. D.
    Grauer, H. Groeller, J. K. Hogan, R. A. Kowalski, S. M. Larson, G. J.
    Leonard, D. Rankin, R. L. Seaman, F. C. Shelly, K. W. Wierzchos.  1.0-m
    prime focus + CCD.
I93 St Pardon de Conques.  Observer F. Losse.  0.40-m f/3.7 reflector + CMO.
J57 Centro Astronomico Alto Turia, Valencia.  Observer A. Fornas.  Measurers
    A. Fornas, G. Fornas, E. Arce, V. Mas.  0.43-m f/6.8 Reflector 0.4m + CMO.
L01 Visnjan Observatory, Tican.  Observer K. Korlevic.  1.0-m f/2.9 reflector
    + CCD.
Z43 Landehen.  Observer C. Ratinaud.  0.25-m f/4.7 reflector + CCD.

Orbital elements:
2023 TR1                                                 Earth MOID = 0.0005 AU
Epoch 2023 Sept. 13.0 TT = JDT 2460200.5                Veres                   
M 307.99349              (2000.0)            P               Q                  
n   0.67668003     Peri.  290.44519     -0.56041031     -0.82801979             
a   1.2849330      Node   193.68339     +0.78539540     -0.52441853             
e   0.6290679      Incl.    4.36066     +0.26285804     -0.19841480             
P   1.46           H   29.86          G   0.15           U   8                  
Residuals in seconds of arc
231006 G96  1.6-  0.0     231006 J57  1.9+  0.8+    231006 595  1.1+  0.5-
231006 G96  0.1-  0.1-    231006 J57  0.2+  0.1-    231006 104  0.3-  0.3+
231006 G96  0.1-  0.5-    231006 J57  0.2+  0.2-    231006 104  0.5-  0.6+
231006 G96  0.2-  0.2-    231006 J57  0.2+  0.5+    231006 104  0.7+  0.2+
231006 G96  0.1+  0.2+    231006 J57  1.3+  0.7+    231006 I93  0.6+  0.1+
231006 G96  0.1+  0.2-    231006 J57  0.5+  0.0     231006 I93  0.2+  0.1+
231006 I52  0.3-  0.3+    231006 J57  0.1-  0.0     231006 I93  0.5+  0.3-
231006 I52  0.1-  0.4-    231006 J57  0.1+  0.2+    231006 I93  0.5+  0.2+
231006 I52  0.1-  0.3+    231006 J57  0.1+  0.5+    231006 I93  0.2+  0.3+
231006 I52  0.1-  0.2-    231006 J57  0.5+  0.3+    231006 958  0.2-  0.3-
231006 I52  0.3-  0.0     231006 J57  0.8+  0.0     231006 958  0.0   0.2+
231006 I52  0.0   0.3-    231006 Z43  0.4-  0.0     231006 958  0.0   0.3+
231006 I52  0.0   0.4-    231006 Z43  0.4-  0.3+    231006 958  0.1+  0.1+
231006 I52  0.6-  0.5-    231006 B72  0.0   0.1+    231006 L01  0.4+  0.5-
231006 I52  0.3-  0.2+    231006 Z43  0.4+  1.0-    231006 L01  0.3-  0.5-
231006 I52  0.1+  0.1-    231006 B72  0.7-  0.1+    231006 L01  0.3-  0.5-
231006 I52  0.5-  0.4-    231006 B72  1.0-  0.1-    231006 204  0.0   0.4-
231006 J57  0.4-  0.0     231006 B72  0.8-  0.6+    231006 L01  0.0   0.5-
231006 J57  0.7-  0.5+    231006 B72  1.0-  0.1+    231006 204  0.1-  0.1+
231006 J57  0.7-  1.2+    231006 595  0.8+  0.1+    231006 L01  0.9+  0.6-
231006 J57  0.9-  1.0-    231006 B72  0.5-  0.1-    231006 204  0.4-  0.1+
231006 J57  0.3-  1.1+    231006 595  0.2-  0.9+

Ephemeris:
2023 TR1                 a,e,i = 1.28, 0.63, 4                   q = 0.4766
Date    TT    R. A. (2000) Decl.     Delta      r    Elong.  Phase     V
2023 09 07    01 12 00.0 +13 28 20   0.3652  1.3144   141.8    28.3    29.5
...
2023 09 22    01 17 07.4 +14 24 55   0.1772  1.1664   154.6    21.7    27.5
...
2023 09 30    01 17 20.4 +14 44 59   0.08305 1.0809   161.8    16.8    25.5
...
2023 10 06    01 08 03.2 +15 38 25   0.01406 1.0137   167.7    12.1    21.4
2023 10 07    00 17 03.5 +19 23 02   0.0026881.0023   163.9    16.1    17.9
2023 10 08    13 33 42.8 -13 25 17   0.0089050.9907    12.9   167.0    33.9
...
2023 10 14    13 17 35.1 -14 47 50   0.07788 0.9205     7.0   172.4
...
2023 10 22    13 16 35.9 -14 42 10   0.1731  0.8243     7.8   170.6
...
2023 11 06    13 22 12.9 -14 22 11   0.3802  0.6451    19.3   149.4

M. P. C. Staff               (C) Copyright 2023 MPC           M.P.E.C. 2023-T62





More information about the Iaude mailing list